STARLINK-34210

Last updated on Mon Oct 20 2025 00:02:05 GMT+0000 (Coordinated Universal Time)

1 65653U 25211B 25292.25002315 -.02403426 00000+0 -62979-1 0 9990 2 65653 97.6034 334.4066 0001590 74.5699 288.1163 15.42229564 5821
UTC large
Height (km)
Speed (km/s)
/
Latitude / Longitude
Inclination (degrees)
Orbital Period (minutes)
Azimuth
Elevation
Range (km)
Doppler Factor

Next 0 passes for location: London (51.5072 / 0.1276)

Sorry there are no passes over London.